sat.trackr.live / text

‹ back to catalog

STARLINK-30996

NORAD 59023 · 2024-038A

PAYLOAD ACTIVE UNKNOWN

§ Identity

Operator
Country
US
Launch date
2024-02-25
Launch site
AFETR
Launch vehicle
Mass (kg)
RCS (m²)

Purposes: comms

External: N2YO · Heavens-Above · Gunter

§ Orbital elements

Epoch: 2026-05-25T03:57:15.187104Z

Period
94.27 min
Inclination
43.0003°
Eccentricity
0.0001303
Mean motion
15.27578091 rev/d
Perigee alt
482.2 km
Apogee alt
483.9 km
Semi-major
6,861.2 km
B*
6.1993e-5
RAAN
315.1641°
Arg perigee
271.0062°
Mean anomaly
89.0640°
Rev number
12,782

§ Raw data

STARLINK-309961 59023U 24038A   26145.16475911  .00001444  00000+0  61993-4 0  99922 59023  43.0003 315.1641 0001303 271.0062  89.0640 15.27578091127829

JSON: /api/v1/satellites/59023 · /tle

For live sub-satellite position, see the globe view (requires WebGL).

§ Visibility from observer

Set your observer location to see the next 7 days of passes ≥ 10°. The values pass through the URL so the page stays shareable.

No JS? Fill the form by hand. The geolocation button needs JavaScript.